Weather in Triesenberg

Liechtenstein     47°07′05″N   9°32′36″E
temp.,
°C
wind,
m/s
gust,
m/s
humid.,
%
clouds,
%
prec.,
mm/h
press.,
hPa
HPBL,
m
13 april, tue
tue1323:00−7nnw1299100 0.1 103277
02:00−7n1298100 0.3 103153
05:00−10n119899 0.3 103319
08:00−7n2297100 0.6 103298
11:00−3n348689 0.3 1030965
14:00−2n4484100 0.6 10291195
17:00−1n3484100 0.4 10281003
20:00−7n229929 0.6 103118
14 april, wed
wed1423:00−9s119997 0.1 103438
02:00−9s229873 0.1 103367
05:00−13s229784 0.1 103423
08:00−10s239463 0.1 103381
11:00−4ne018271 0.0 1028586
14:00−2n228682 0.1 1026854
17:00−1n338453 0.4 1025849
20:00−5nnw229894 0.7 102824
15 april, thu
thu1523:00−10ssw119978 0.0 103111
02:00−10s229864 0.1 103033
05:00−11s329676 0.1 103130
08:00−9s239580 0.1 103077
11:00−3ne118393 0.0 1026604
14:00−1nne118359 0.3 1024788
17:00−1n238485 0.4 1023701
20:00−6n119624 0.9 102510
16 april, fri
fri1623:00−10s329635 0.0 102928
02:00−10s339599 0.0 102740
05:00−11s339335 0.0 102737
08:00−7s339036 0.0 102586
11:00−1e11784 0.0 1021418
14:00+1nne228424 0.0 1019709
17:00+2nne238140 0.1 1018971
20:00−2nnw119371 0.1 102115
17 april, sat
sat1723:00−7s119527 0.0 102511
02:00−7s239527 0.0 102436
05:00−8s339419 0.0 102438
08:00−5s228821 0.0 102392
11:00+1n228675 0.0 1020646
14:00+2n237798 0.1 10181114
17:00+3n238287 0.2 1018816
20:000nnw2398100 0.8 1019149